Location: Peterborough
(44.3048°N, 78.3199°W)
Time: 03:44:55
(UTC-04:00)

ISS - Pass Details

Date: 16 May 2025
Orbit: 415 x 418 km, 51.6° (Epoch: 20 June)

Event Time Altitude Azimuth Distance (km) Brightness Sun altitude
Rises 23:56:35 0° 301° (WNW) 2,360 0.8 -24.4°
Reaches altitude 10° 23:58:49 10° 312° (NW) 1,494 -0.2 -24.5°
Enters shadow 00:01:42 31° 10° (N) 755 -2.0 -24.7°
